Date,TemperatureHighF,TemperatureAvgF,TemperatureLowF,DewpointHighF,DewpointAvgF,DewpointLowF,HumidityHigh,HumidityAvg,HumidityLow,PressureMaxIn,PressureMinIn,WindSpeedMaxMPH,WindSpeedAvgMPH,GustSpeedMaxMPH,PrecipitationSumIn
2014-1-1,25.8,19.9,15.1,14.0,9.4,5.1,77,63,50,0.00,40.00,7,4,17,0.00
2014-1-2,19.6,12.9,4.7,15.2,9.6,1.3,90,86,80,0.00,40.00,8,5,19,0.00
2014-1-3,11.6,4.7,-5.0,3.5,-1.8,-10.4,86,74,52,0.00,40.00,11,6,23,0.00
2014-1-4,22.7,9.3,-6.8,9.0,-0.4,-11.1,83,66,45,0.00,40.00,9,3,23,0.00
2014-1-5,41.9,26.5,16.1,41.5,20.3,8.6,98,77,60,0.00,40.00,4,1,11,0.15
2014-1-6,57.3,41.0,22.7,56.9,38.5,14.8,99,91,70,0.00,40.00,11,5,28,1.40
2014-1-7,22.6,7.8,3.3,15.0,-4.3,-9.3,75,57,46,0.00,40.00,11,8,28,0.00
2014-1-8,18.4,9.8,1.8,6.0,0.1,-7.1,74,64,54,0.00,40.00,6,4,14,0.00
2014-1-9,28.3,17.7,9.2,13.8,8.7,4.4,81,68,48,0.00,40.00,7,2,17,0.00
2014-1-10,35.0,25.8,12.8,34.4,23.3,8.2,98,90,73,0.00,40.00,3,1,7,0.05
2014-1-11,58.4,48.6,33.8,57.6,48.1,33.3,99,98,94,0.00,40.00,11,4,22,1.57
2014-1-12,51.5,39.5,33.4,50.7,31.9,24.7,97,74,64,0.00,40.00,10,7,23,0.05
2014-1-13,47.2,39.1,27.9,39.2,31.2,24.2,86,73,61,0.00,40.00,8,4,24,0.00
2014-1-14,46.3,43.6,37.7,43.8,41.9,36.5,99,93,80,0.00,40.00,7,3,16,0.81
2014-1-15,47.7,37.7,29.4,38.9,34.1,28.3,96,87,67,0.00,40.00,5,2,11,0.00
2014-1-16,38.2,35.0,31.9,35.9,33.8,31.4,98,95,89,0.00,40.00,3,1,7,0.00
2014-1-17,41.2,33.9,28.3,31.7,29.1,25.2,98,84,60,0.00,40.00,6,2,14,0.00
2014-1-18,34.0,31.8,27.7,32.7,30.5,27.1,98,94,89,0.00,40.00,5,2,10,0.00
2014-1-19,31.4,27.1,23.8,26.9,23.6,21.6,97,86,75,0.00,40.00,9,4,19,0.00
2014-1-20,39.2,31.7,18.0,30.4,23.3,6.6,92,70,57,0.00,40.00,12,7,27,0.08
2014-1-21,17.7,12.0,7.0,7.3,3.0,-0.4,84,67,54,0.00,40.00,9,5,16,0.00
2014-1-22,15.1,5.9,-0.9,1.9,-4.6,-9.2,79,62,46,0.00,40.00,9,6,18,0.00
2014-1-23,17.8,7.1,-2.0,0.7,-3.1,-7.5,81,63,42,0.00,40.00,7,3,16,0.00
2014-1-24,15.6,8.9,0.6,0.9,-2.8,-7.2,69,58,46,0.00,40.00,7,4,17,0.00
2014-1-25,30.3,20.8,12.1,21.5,13.1,1.2,93,72,58,0.00,40.00,9,5,24,0.00
2014-1-26,18.8,14.6,8.2,15.5,4.5,-2.5,90,64,50,0.00,40.00,11,5,23,0.00
2014-1-27,38.0,24.1,14.1,32.8,15.2,-3.1,89,70,41,0.00,40.00,10,5,22,0.00
2014-1-28,16.2,11.1,5.6,-1.1,-5.2,-9.7,55,47,40,0.00,40.00,10,4,21,0.00
2014-1-29,23.3,15.1,8.9,6.3,-1.3,-4.7,77,49,30,0.00,40.00,7,3,14,0.00
2014-1-30,27.3,17.0,6.7,15.5,3.1,-5.7,81,54,40,0.00,40.00,6,2,14,0.00
2014-1-31,38.6,29.3,20.5,21.5,17.5,10.5,89,62,42,0.00,40.00,6,4,18,0.00